When you browse on this site, cookies collect data to enhance your experience and personalize the content and advertising you see.
Visit our Privacy Policy to learn more. By continuing to use the site, you agree to this use of cookies and data.
  • In Hungary
  • List of Countries
  • For 7 days
  • Water Temperature
  • Satellite Maps
  • Weather Map
  • News
  • Weather Widgets
  • user-avatar
    Login

    Hourly Weather Shibam

    Today, 16 November, Friday

    Time Temperature Precipitation Wind Pressure Humidity
    00:00 +13°C° 0 mm 0 mps 561 mmHg 53%
    01:00 +13°C° 0 mm 0 mps 561 mmHg 54%
    02:00 +12°C° 0 mm 0 mps 560 mmHg 55%
    03:00 +13°C° 0 mm 1 mps 560 mmHg 56%
    04:00 +12°C° 0 mm 1 mps 560 mmHg 57%
    05:00 +12°C° 0 mm 1 mps 560 mmHg 58%
    06:00 +11°C° 0 mm 1 mps 560 mmHg 59%
    07:00 +13°C° 0 mm 1 mps 561 mmHg 51%
    08:00 +15°C° 0 mm 1 mps 562 mmHg 44%
    09:00 +16°C° 0 mm 1 mps 563 mmHg 35%
    10:00 +18°C° 0 mm 1 mps 563 mmHg 32%
    11:00 +18°C° 0 mm 2 mps 564 mmHg 29%
    12:00 +19°C° 0 mm 2 mps 564 mmHg 26%
    13:00 +19°C° 0 mm 2 mps 564 mmHg 28%
    14:00 +19°C° 0 mm 3 mps 564 mmHg 29%
    15:00 +19°C° 0 mm 3 mps 563 mmHg 34%
    16:00 +18°C° 0.1 mm 3 mps 563 mmHg 38%
    17:00 +17°C° 0.1 mm 3 mps 563 mmHg 43%
    18:00 +17°C° 0.1 mm 3 mps 563 mmHg 48%
    19:00 +16°C° 0.1 mm 2 mps 563 mmHg 50%
    20:00 +16°C° 0.1 mm 2 mps 563 mmHg 52%
    21:00 +16°C° 0.1 mm 2 mps 563 mmHg 53%
    22:00 +15°C° 0.7 mm 2 mps 563 mmHg 55%
    23:00 +15°C° 0.7 mm 1 mps 563 mmHg 57%

    Tomorrow, 17 November, Saturday

    Time Temperature Precipitation Wind Pressure Humidity
    00:00 +14°C° 0.7 mm 1 mps 562 mmHg 59%
    01:00 +14°C° 0.2 mm 1 mps 562 mmHg 61%
    02:00 +13°C° 0.2 mm 1 mps 562 mmHg 63%
    03:00 +13°C° 0.2 mm 1 mps 562 mmHg 65%
    04:00 +13°C° 0 mm 1 mps 561 mmHg 65%
    05:00 +12°C° 0 mm 1 mps 561 mmHg 65%
    06:00 +12°C° 0 mm 1 mps 561 mmHg 65%
    07:00 +13°C° 0 mm 1 mps 562 mmHg 58%
    08:00 +15°C° 0 mm 1 mps 563 mmHg 51%
    09:00 +16°C° 0 mm 2 mps 564 mmHg 44%
    10:00 +17°C° 0 mm 2 mps 564 mmHg 41%
    11:00 +18°C° 0 mm 2 mps 564 mmHg 38%
    12:00 +19°C° 0 mm 2 mps 564 mmHg 35%
    13:00 +19°C° 0 mm 2 mps 564 mmHg 37%
    14:00 +19°C° 0 mm 2 mps 564 mmHg 40%
    15:00 +18°C° 0 mm 2 mps 563 mmHg 42%
    16:00 +18°C° 0.1 mm 2 mps 563 mmHg 44%
    17:00 +17°C° 0.1 mm 3 mps 563 mmHg 45%
    18:00 +17°C° 0.1 mm 3 mps 563 mmHg 47%
    19:00 +16°C° 0 mm 2 mps 563 mmHg 49%
    20:00 +16°C° 0 mm 2 mps 563 mmHg 50%
    21:00 +15°C° 0 mm 2 mps 563 mmHg 51%
    22:00 +15°C° 0 mm 2 mps 563 mmHg 52%
    23:00 +14°C° 0 mm 2 mps 563 mmHg 53%

    Day after tomorrow, 18 November, Sunday

    Time Temperature Precipitation Wind Pressure Humidity
    00:00 +14°C° 0 mm 1 mps 563 mmHg 54%
    01:00 +14°C° 0 mm 1 mps 562 mmHg 54%
    02:00 +13°C° 0 mm 1 mps 562 mmHg 54%
    03:00 +13°C° 0 mm 1 mps 561 mmHg 54%
    04:00 +12°C° 0 mm 1 mps 561 mmHg 53%
    05:00 +12°C° 0 mm 1 mps 561 mmHg 53%
    06:00 +12°C° 0 mm 1 mps 561 mmHg 53%
    07:00 +13°C° 0 mm 2 mps 562 mmHg 48%
    08:00 +14°C° 0 mm 2 mps 563 mmHg 44%
    09:00 +15°C° 0 mm 2 mps 564 mmHg 40%
    10:00 +16°C° 0 mm 2 mps 564 mmHg 38%
    11:00 +17°C° 0 mm 2 mps 564 mmHg 36%
    12:00 +18°C° 0 mm 2 mps 564 mmHg 33%
    13:00 +19°C° 0 mm 2 mps 564 mmHg 34%
    14:00 +19°C° 0 mm 2 mps 564 mmHg 35%
    15:00 +19°C° 0 mm 2 mps 563 mmHg 36%
    16:00 +18°C° 0.1 mm 2 mps 563 mmHg 41%
    17:00 +17°C° 0.1 mm 2 mps 563 mmHg 46%
    18:00 +16°C° 0.1 mm 2 mps 562 mmHg 50%
    19:00 +16°C° 0.4 mm 2 mps 563 mmHg 51%
    20:00 +16°C° 0.4 mm 2 mps 563 mmHg 52%
    21:00 +15°C° 0.4 mm 2 mps 563 mmHg 53%
    22:00 +15°C° 0.4 mm 2 mps 563 mmHg 53%
    23:00 +14°C° 0.4 mm 2 mps 562 mmHg 53%

    19 November, Monday

    Time Temperature Precipitation Wind Pressure Humidity
    00:00 +14°C° 0.4 mm 1 mps 562 mmHg 54%
    01:00 +14°C° 0.1 mm 1 mps 562 mmHg 54%
    02:00 +13°C° 0.1 mm 1 mps 561 mmHg 55%
    03:00 +13°C° 0.1 mm 1 mps 561 mmHg 56%
    04:00 +13°C° 0 mm 1 mps 561 mmHg 56%
    05:00 +12°C° 0 mm 1 mps 561 mmHg 56%
    06:00 +12°C° 0 mm 1 mps 561 mmHg 57%
    07:00 +13°C° 0 mm 1 mps 562 mmHg 52%
    08:00 +14°C° 0 mm 2 mps 563 mmHg 47%
    09:00 +15°C° 0 mm 2 mps 564 mmHg 42%
    10:00 +16°C° 0 mm 2 mps 564 mmHg 40%
    11:00 +17°C° 0 mm 2 mps 564 mmHg 37%
    12:00 +18°C° 0 mm 2 mps 564 mmHg 34%
    13:00 +19°C° 0 mm 2 mps 564 mmHg 34%
    14:00 +19°C° 0 mm 2 mps 564 mmHg 35%
    15:00 +19°C° 0 mm 2 mps 563 mmHg 36%
    16:00 +18°C° 0.1 mm 2 mps 563 mmHg 40%
    17:00 +17°C° 0.1 mm 2 mps 563 mmHg 44%
    18:00 +17°C° 0.1 mm 2 mps 562 mmHg 48%
    19:00 +16°C° 0.4 mm 2 mps 563 mmHg 49%
    20:00 +16°C° 0.4 mm 2 mps 563 mmHg 50%
    21:00 +15°C° 0.4 mm 2 mps 563 mmHg 51%
    22:00 +15°C° 0.3 mm 2 mps 563 mmHg 51%
    23:00 +15°C° 0.3 mm 1 mps 563 mmHg 50%

    20 November, Tuesday

    Time Temperature Precipitation Wind Pressure Humidity
    00:00 +14°C° 0.3 mm 1 mps 562 mmHg 50%
    01:00 +14°C° 0 mm 1 mps 562 mmHg 50%
    02:00 +14°C° 0 mm 1 mps 561 mmHg 51%
    03:00 +13°C° 0 mm 1 mps 561 mmHg 51%
    04:00 +13°C° 0 mm 1 mps 561 mmHg 51%
    05:00 +12°C° 0 mm 1 mps 561 mmHg 51%
    06:00 +12°C° 0 mm 1 mps 561 mmHg 52%
    07:00 +13°C° 0 mm 1 mps 562 mmHg 47%
    08:00 +14°C° 0 mm 1 mps 563 mmHg 43%
    09:00 +16°C° 0 mm 1 mps 564 mmHg 38%
    10:00 +18°C° 0 mm 1 mps 564 mmHg 37%
    11:00 +18°C° 0 mm 1 mps 564 mmHg 35%
    12:00 +18°C° 0 mm 2 mps 564 mmHg 33%
    13:00 +19°C° 0.1 mm 2 mps 564 mmHg 35%
    14:00 +19°C° 0.1 mm 2 mps 564 mmHg 36%
    15:00 +19°C° 0.1 mm 3 mps 563 mmHg 38%
    16:00 +18°C° 0.1 mm 3 mps 563 mmHg 42%
    17:00 +17°C° 0.1 mm 2 mps 563 mmHg 46%
    18:00 +16°C° 0.1 mm 2 mps 563 mmHg 51%
    19:00 +16°C° 0.2 mm 2 mps 563 mmHg 52%
    20:00 +15°C° 0.2 mm 2 mps 563 mmHg 54%
    21:00 +15°C° 0.2 mm 2 mps 564 mmHg 55%
    22:00 +15°C° 0.2 mm 2 mps 563 mmHg 55%
    23:00 +14°C° 0.2 mm 2 mps 563 mmHg 56%

    21 November, Wednesday

    Time Temperature Precipitation Wind Pressure Humidity
    00:00 +14°C° 0.2 mm 1 mps 563 mmHg 56%
    01:00 +14°C° 0.1 mm 1 mps 562 mmHg 57%
    02:00 +13°C° 0.1 mm 1 mps 562 mmHg 57%
    03:00 +13°C° 0.1 mm 1 mps 561 mmHg 57%
    04:00 +13°C° 0 mm 1 mps 561 mmHg 58%
    05:00 +12°C° 0 mm 1 mps 561 mmHg 59%
    06:00 +12°C° 0 mm 1 mps 562 mmHg 60%
    07:00 +13°C° 0 mm 1 mps 562 mmHg 55%
    08:00 +14°C° 0 mm 2 mps 563 mmHg 50%
    09:00 +15°C° 0 mm 2 mps 564 mmHg 44%
    10:00 +16°C° 0 mm 2 mps 564 mmHg 41%
    11:00 +17°C° 0 mm 2 mps 564 mmHg 38%
    12:00 +18°C° 0 mm 2 mps 564 mmHg 35%
    13:00 +18°C° 0.1 mm 2 mps 564 mmHg 36%
    14:00 +18°C° 0.1 mm 2 mps 564 mmHg 36%
    15:00 +19°C° 0.1 mm 3 mps 563 mmHg 37%
    16:00 +18°C° 0.5 mm 3 mps 563 mmHg 41%
    17:00 +17°C° 0.5 mm 3 mps 563 mmHg 44%
    18:00 +16°C° 0.5 mm 3 mps 563 mmHg 47%
    19:00 +16°C° 0.4 mm 3 mps 563 mmHg 48%
    20:00 +14°C° 0.4 mm 3 mps 563 mmHg 49%
    21:00 +15°C° 0.4 mm 2 mps 563 mmHg 49%
    22:00 +15°C° 0.1 mm 2 mps 563 mmHg 50%
    23:00 +14°C° 0.1 mm 2 mps 563 mmHg 50%
    Show more